Chezy-en-Orxois, France

2:32 PM CEST on September 24, 2018 (GMT +0200)
Chezy-en-Orxois

Weather History for 07157 - April, 2004

Change the Weather History Date:

Monday, April 26, 2004

  Actual Average Record
Temperature  
Mean Temperature 58 °F -  
Max Temperature 69 °F 64 °F - ()
Min Temperature 46 °F 48 °F - ()
Degree Days  
Heating Degree Days 8    
Growing Degree Days 8 (Base 50)    
Moisture  
Dew Point 42 °F    
Average Humidity 56    
Maximum Humidity 81    
Minimum Humidity 35    
Precipitation  
Precipitation 0.00 in - - ()
Sea Level Pressure  
Sea Level Pressure 30.08 in    
Wind  
Wind Speed 8 mph ()    
Max Wind Speed 15 mph    
Max Gust Speed -    
T = Trace of Precipitation, MM = Missing Value Source: Averaged Metar Reports

Daily Weather History Graph

Daily Weather History Graph

Search for Another Location

Airport or City:

Astronomy

Apr. 26, 2004 Rise Set
Actual Time 6:37 AM CEST 8:58 PM CEST
Civil Twilight 6:02 AM CEST 9:33 PM CEST
Nautical Twilight 5:18 AM CEST 10:17 PM CEST
Astronomical Twilight 4:28 AM CEST 11:08 PM CEST
Moon 10:45 AM CEST (4/26) 3:13 AM CEST (4/26)
Length of Visible Light 15h 31m
Length of Day
14h 21m
Waxing Crescent, 37% of the Moon is Illuminated
Apr 26
Waxing Crescent
Apr 27
First Quarter
May 4
Full
May 11
Last Quarter
May 19
New

Hourly Weather History & Observations

Time (CEST) Temp. Windchill Dew Point Humidity Pressure Visibility Wind Dir Wind Speed Gust Speed Precip Events Conditions
12:00 AM 53.6 °F - 42.8 °F 67% 30.21 in - ENE 8.1 mph - N/A   Clear
12:30 AM 51.8 °F - 42.8 °F 71% 30.21 in - NE 8.1 mph - N/A   Clear
1:00 AM 51.8 °F - 42.8 °F 71% 30.18 in - NE 6.9 mph - N/A   Clear
1:30 AM 51.8 °F - 41.0 °F 67% 30.18 in - NE 6.9 mph - N/A   Clear
2:00 AM 50.0 °F - 41.0 °F 71% 30.18 in - NE 4.6 mph - N/A   Clear
2:30 AM 50.0 °F - 41.0 °F 71% 30.18 in - NE 8.1 mph - N/A   Clear
3:00 AM 50.0 °F - 42.8 °F 76% 30.18 in - ENE 9.2 mph - N/A   Clear
3:30 AM 50.0 °F - 41.0 °F 71% 30.18 in - ENE 8.1 mph - N/A   Clear
4:00 AM 50.0 °F - 41.0 °F 71% 30.18 in - ENE 8.1 mph - N/A   Clear
4:30 AM 48.2 °F - 41.0 °F 76% 30.15 in - ENE 8.1 mph - N/A   Clear
5:00 AM 48.2 °F - 41.0 °F 76% 30.15 in - East 6.9 mph - N/A   Clear
5:30 AM 50.0 °F - 41.0 °F 71% 30.15 in - ENE 5.8 mph - N/A   Clear
6:00 AM 50.0 °F - 41.0 °F 71% 30.15 in - ENE 4.6 mph - N/A   Clear
6:30 AM 50.0 °F - 39.2 °F 66% 30.15 in - ENE 8.1 mph - N/A   Clear
7:00 AM 46.4 °F 42.9 °F 39.2 °F 76% 30.15 in - NNE 6.9 mph - N/A   Clear
7:30 AM 46.4 °F 42.9 °F 41.0 °F 81% 30.15 in - NE 6.9 mph - N/A   Clear
8:00 AM 48.2 °F - 41.0 °F 76% 30.15 in - NE 6.9 mph - N/A   Clear
8:30 AM 51.8 °F - 41.0 °F 67% 30.15 in - NE 9.2 mph - N/A   Clear
9:00 AM 51.8 °F - 41.0 °F 67% 30.15 in - NE 11.5 mph - N/A   Clear
9:30 AM 55.4 °F - 41.0 °F 58% 30.12 in - ENE 11.5 mph - N/A   Clear
10:00 AM 55.4 °F - 39.2 °F 54% 30.12 in - ENE 12.7 mph - N/A   Clear
10:30 AM 57.2 °F - 39.2 °F 51% 30.12 in - East 15.0 mph - N/A   Clear
11:00 AM 59.0 °F - 39.2 °F 48% 30.12 in - East 12.7 mph - N/A   Clear
11:30 AM 59.0 °F - 41.0 °F 51% 30.12 in - East 11.5 mph - N/A   Clear
12:00 PM 60.8 °F - 41.0 °F 48% 30.09 in - East 10.4 mph - N/A   Clear
12:30 PM 60.8 °F - 42.8 °F 52% 30.09 in - ENE 10.4 mph - N/A   Clear
1:00 PM 62.6 °F - 41.0 °F 45% 30.09 in - ENE 9.2 mph - N/A   Clear
1:30 PM 64.4 °F - 41.0 °F 42% 30.06 in - ENE 10.4 mph - N/A   Clear
2:00 PM 64.4 °F - 42.8 °F 45% 30.06 in - ENE 10.4 mph - N/A   Clear
2:30 PM 66.2 °F - 44.6 °F 46% 30.04 in - ENE 11.5 mph - N/A   Clear
3:00 PM 66.2 °F - 44.6 °F 46% 30.04 in - East 15.0 mph - N/A   Clear
3:30 PM 68.0 °F - 42.8 °F 40% 30.04 in - ENE 13.8 mph - N/A   Clear
4:00 PM 68.0 °F - 41.0 °F 37% 30.01 in - East 13.8 mph - N/A   Clear
4:30 PM 68.0 °F - 42.8 °F 40% 30.01 in - East 13.8 mph - N/A   Clear
5:00 PM 68.0 °F - 42.8 °F 40% 29.98 in - East 12.7 mph - N/A   Clear
5:30 PM 69.8 °F - 41.0 °F 35% 29.98 in - East 11.5 mph - N/A   Clear
6:00 PM 68.0 °F - 41.0 °F 37% 29.98 in - ENE 11.5 mph - N/A   Clear
6:30 PM 69.8 °F - 41.0 °F 35% 29.98 in - East 11.5 mph - N/A   Clear
7:00 PM 68.0 °F - 41.0 °F 37% 29.95 in - East 13.8 mph - N/A   Clear
7:30 PM 68.0 °F - 42.8 °F 40% 29.95 in - East 10.4 mph - N/A   Clear
8:00 PM 66.2 °F - 42.8 °F 43% 29.95 in - East 9.2 mph - N/A   Clear
8:30 PM 66.2 °F - 41.0 °F 40% 29.95 in - ESE 8.1 mph - N/A   Clear
9:00 PM 64.4 °F - 41.0 °F 42% 29.98 in - SE 9.2 mph - N/A   Clear
9:30 PM 64.4 °F - 41.0 °F 42% 29.98 in - SE 6.9 mph - N/A   Clear
10:00 PM 60.8 °F - 42.8 °F 52% 29.98 in - NNE 3.5 mph - N/A   Clear
10:30 PM 60.8 °F - 42.8 °F 52% 29.98 in - NE 3.5 mph - N/A   Clear
11:00 PM 59.0 °F - 44.6 °F 59% 29.95 in - NE 5.8 mph - N/A   Clear
11:30 PM 57.2 °F - 44.6 °F 63% 29.95 in - NE 4.6 mph - N/A   Clear